Terminal Aerodrome Forecast
Issued by NWS

Home | Current Version | Previous Version | Text Only | Print | Product List | Glossary On
Versions: 1 2 3 4 5 6 7 8 9 10 11 12 13 14 15 16 17 18 19 20 21 22 23 24 25 26 27 28 29 30 31 32
000
FTUS41 KBUF 180500
TAFJHW
TAF
KJHW 180532Z 1806/1906 18010KT P6SM BKN200
     FM181400 19011KT P6SM BKN150
     FM181900 23011KT P6SM BKN045
     FM182100 27010KT P6SM BKN045
     FM190000 27006KT P6SM BKN045
     FM190500 30006KT P6SM BKN150
      AMD LTD TO CLD VIS AND WIND=

USA.gov is the U.S. government's official web portal to all federal, state and local government web resources and services.